Puerto Plata, Dominican Republic

12:41 PM AST on February 06, 2016 (GMT -0400)
Gregorio Luperon International

Weather History for MDPP - May, 2012

Change the Weather History Date:

Saturday, May 26, 2012

  Actual Average Record
Temperature  
Mean Temperature 80 °F -  
Max Temperature 88 °F 87 °F 91 °F (2003)
Min Temperature 71 °F 74 °F 68 °F (2014)
Cooling Degree Days 14    
Growing Degree Days 30 (Base 50)    
Moisture  
Dew Point 73 °F    
Average Humidity 74    
Maximum Humidity 94    
Minimum Humidity 50    
Precipitation  
Precipitation 0.00 in - - ()
Sea Level Pressure  
Sea Level Pressure 29.99 in    
Wind  
Wind Speed 7 mph ()    
Max Wind Speed 20 mph    
Max Gust Speed -    
Visibility 7.1 miles    
Events      
Averages and records for this station are not official NWS values.
T = Trace of Precipitation, MM = Missing Value Source: Averaged Metar Reports

Daily Weather History Graph

Daily Weather History Graph

Search for Another Location

Airport or City:

Trip Planner

Search our weather history database for the weather conditions in past years. The results will help you decide how hot, cold, wet, or windy it might be!

Date:

Astronomy

May. 26, 2012 Rise Set
Actual Time 6:03 AM AST 7:15 PM AST
Civil Twilight 5:39 AM AST 7:39 PM AST
Nautical Twilight 5:10 AM AST 8:08 PM AST
Astronomical Twilight 4:41 AM AST 8:37 PM AST
Moon 10:44 AM AST (5/26) 11:44 PM AST (5/26)
Length of Visible Light 14h 00m
Length of Day
13h 12m
Waxing Crescent, 28% of the Moon is Illuminated
May 26
Waxing Crescent
May 28
First Quarter
Jun 4
Full
Jun 11
Last Quarter
Jun 19
New

Hourly Weather History & Observations

Time (AST) Temp. Heat Index Dew Point Humidity Pressure Visibility Wind Dir Wind Speed Gust Speed Precip Events Conditions
2:00 AM 77.0 °F - 73.4 °F 89% 30.01 in 6.2 mi East 5.8 mph - N/A   Partly Cloudy
5:00 AM 73 °F - 71 °F 91% 29.97 in 10 mi Calm Calm - -   Scattered Clouds
5:00 AM 73.4 °F - 71.6 °F 94% 29.95 in 6.2 mi Calm Calm - N/A   Partly Cloudy
8:00 AM 79 °F - 71 °F 71% 30.01 in 10 mi East 4.5 mph - -   Scattered Clouds
8:00 AM 78.8 °F - 71.6 °F 78% 30.01 in 6.2 mi East 4.6 mph - N/A   Partly Cloudy
9:00 AM 82.4 °F 87.2 °F 71.6 °F 70% 30.04 in 6.2 mi Calm Calm - N/A   Partly Cloudy
10:00 AM 84.2 °F 90.9 °F 73.4 °F 70% 30.01 in 6.2 mi Calm Calm - N/A   Partly Cloudy
11:00 AM 86.0 °F 93.4 °F 73.4 °F 66% 30.04 in 6.2 mi East 8.1 mph - N/A   Partly Cloudy
12:00 PM 86.0 °F 91.8 °F 71.6 °F 62% 30.01 in 6.2 mi East 19.6 mph - N/A   Partly Cloudy
1:00 PM 86.0 °F 91.8 °F 71.6 °F 62% 30.01 in 6.2 mi East 19.6 mph - N/A   Partly Cloudy
2:00 PM 88 °F - 72 °F 50% 30.00 in 10 mi East 17.9 mph - -   Scattered Clouds
2:00 PM 87.8 °F 93.8 °F 71.6 °F 58% 29.98 in 6.2 mi East 18.4 mph - N/A   Partly Cloudy
3:00 PM 87.8 °F 97.6 °F 75.2 °F 66% 29.98 in 6.2 mi East 16.1 mph - N/A   Partly Cloudy
4:00 PM 87.8 °F 97.6 °F 75.2 °F 66% 29.95 in 6.2 mi East 16.1 mph - N/A   Partly Cloudy
5:00 PM 87.8 °F 97.6 °F 75.2 °F 66% 29.95 in 6.2 mi East 17.3 mph - N/A   Partly Cloudy
6:00 PM 84.2 °F 92.3 °F 75.2 °F 74% 29.95 in 6.2 mi East 13.8 mph - N/A   Partly Cloudy
7:00 PM 82.4 °F 89.5 °F 75.2 °F 79% 29.95 in 6.2 mi East 15.0 mph - N/A   Partly Cloudy
8:00 PM 79 °F - 74 °F 80% 29.97 in 10 mi ESE 11.2 mph - -   Scattered Clouds
8:00 PM 78.8 °F - 73.4 °F 83% 29.95 in 6.2 mi ESE 12.7 mph - N/A   Partly Cloudy
11:00 PM 77 °F - 73 °F 85% 30.02 in 10 mi Calm Calm - -   Scattered Clouds
11:00 PM 77.0 °F - 73.4 °F 89% 30.01 in 6.2 mi Calm Calm - N/A   Scattered Clouds